Regional Weather Roundup
Issued by NWS Bismarck, ND

Home | Current Version | Previous Version | Text Only | Print | Product List | Glossary On
Versions: 1 2 3 4 5 6 7 8 9 10 11 12 13 14 15 16 17 18 19 20 21 22 23 24 25 26 27 28 29 30 31 32 33 34 35 36 37 38 39 40 41 42 43 44 45 46 47 48 49 50
000
ASUS43 KBIS 190910
RWRBIS

NWR BROADCAST TEXT
NATIONAL WEATHER SERVICE BISMARCK ND
300 AM CST SUN FEB 19 2017

NOTE: "FAIR" INDICATES FEW OR NO CLOUDS BELOW 12,000 FEET WITH NO
SIGNIFICANT WEATHER AND/OR OBSTRUCTIONS TO VISIBILITY.


CITY           SKY/WX    TMP DP  RH WIND       PRES   REMARKS
WILLISTON      FAIR      33  30  88 E8        29.62F
MINOT          FAIR      33  29  85 NE8       29.68F
MINOT AFB      NOT AVBL
BISMARCK       FAIR      35  33  92 E9        29.64F
DICKINSON      CLOUDY    28  27  96 E7        29.56S FOG
GARRISON         N/A     32  29  88 E14       29.63F
HETTINGER ARPT FAIR      31  29  92 CALM      29.58F
JAMESTOWN      FAIR      35  34  96 E14       29.71S
CARRINGTON     FAIR      34  32  93 SE14      29.74S
HAZEN          CLOUDY   N/A N/A N/A E7        29.64F
MANDAN         FAIR      32  32 100 E8        29.63F
RUGBY            N/A     32  32 100 E17       29.72F
STANLEY        FAIR      32  32 100 E10G18    29.66F
TIOGA          FAIR      32  32 100 E16       29.65S
WATFORD CITY   FAIR      32  30  93 E7        29.60F
$$

CITY           SKY/WX    TMP DP  RH WIND       PRES   REMARKS
GRAND FORKS    CLOUDY    36  30  79 E6        29.82F
GRAND FORKS AF MOCLDY    34  32  91 E5        29.83R
DEVILS LAKE    MOCLDY    35  31  85 E20       29.75F
FARGO          FAIR      35  34  96 E6        29.80R
CAVALIER       CLOUDY    34  32  93 NE5       29.85S
GRAFTON        CLOUDY    34  34 100 NE6       29.86R
GWINNER        FAIR      36  34  93 E5        29.75S
ROLLA          CLOUDY    32  32 100 E10       29.77F
$$

CITY           SKY/WX    TMP DP  RH WIND       PRES   REMARKS
ABERDEEN       FAIR      38  32  79 S14       29.72F
MOBRIDGE       FAIR      39  31  72 SE13      29.61F
BUFFALO          N/A     42  33  70 SE7       29.48F
RAPID CITY     FAIR      41  30  65 CALM      29.60S
GLASGOW        FAIR      33  30  88 E16       29.51F
SIDNEY         FAIR      30  29  96 NE6       29.60S
WOLF POINT     FAIR      33  29  85 E12       29.56F
GLENDIVE       FAIR      30  29  96 NE8       29.55F
MILES CITY     FAIR      33  29  85 NE8       29.49F
BAKER          FAIR      33  30  88 E9        29.53F
$$

CITY           SKY/WX    TMP DP  RH WIND       PRES   REMARKS
BILLINGS       MOCLDY    37  32  82 SE6       29.45S
GREAT FALLS    FAIR      45  29  53 S10       29.35F
REGINA         MOCLDY    32  27  80 SE17      29.67S
ESTEVAN        PTCLDY    30  28  93 E16       29.66F WCI  19
$$





USA.gov is the U.S. government's official web portal to all federal, state and local government web resources and services.